| time (UTC) | temp F | wind direction | speed knots | gust knots | rain 1hr in | rain 24hr in | rain mn in | humidity % | barometer mb |
| 20260904024453 | 82 | 87 | 3.5 | 3.5 | 0.00 | 0.00 | 0.00 | 75 | 1014.4 |
| 20260904023949 | 82 | 150 | 5.2 | 6.1 | 0.00 | 0.00 | 0.00 | 75 | 1014.5 |
| 20260904023445 | 82 | 96 | 5.2 | 7.0 | 0.00 | 0.00 | 0.00 | 74 | 1014.4 |
| 20260904022945 | 83 | 130 | 1.7 | 2.6 | 0.00 | 0.00 | 0.00 | 74 | 1014.4 |
| 20260904022441 | 83 | 119 | 7.8 | 11.3 | 0.00 | 0.00 | 0.00 | 74 | 1014.2 |
| 20260904021937 | 83 | 94 | 5.2 | 7.0 | 0.00 | 0.00 | 0.00 | 73 | 1014.1 |
| 20260904021433 | 83 | 110 | 7.0 | 8.7 | 0.00 | 0.00 | 0.00 | 73 | 1014.1 |
| 20260904020927 | 83 | 84 | 5.2 | 7.0 | 0.00 | 0.00 | 0.00 | 73 | 1013.9 |
| 20260904020422 | 83 | 123 | 3.5 | 6.1 | 0.00 | 0.00 | 0.00 | 72 | 1013.8 |
| 20260904015921 | 83 | 100 | 5.2 | 7.8 | 0.00 | 0.00 | 0.00 | 72 | 1013.9 |
| 20260904015417 | 83 | 168 | 1.7 | 2.6 | 0.00 | 0.00 | 0.00 | 72 | 1013.9 |
| 20260904014915 | 84 | 76 | 1.7 | 2.6 | 0.00 | 0.00 | 0.00 | 71 | 1013.9 |
| 20260904014411 | 84 | 83 | 10.4 | 12.2 | 0.00 | 0.00 | 0.00 | 71 | 1013.7 |
| 20260904013906 | 84 | 83 | 4.3 | 5.2 | 0.00 | 0.00 | 0.00 | 70 | 1013.8 |
| 20260904013402 | 84 | 82 | 5.2 | 7.8 | 0.00 | 0.00 | 0.00 | 70 | 1013.8 |
| 20260904012857 | 84 | 95 | 4.3 | 5.2 | 0.00 | 0.00 | 0.00 | 70 | 1013.6 |
| 20260904012352 | 84 | 77 | 2.6 | 3.5 | 0.00 | 0.00 | 0.00 | 69 | 1013.6 |
| 20260904011851 | 84 | 91 | 6.1 | 7.8 | 0.00 | 0.00 | 0.00 | 69 | 1013.6 |
| 20260904011346 | 84 | 103 | 9.6 | 13.0 | 0.00 | 0.00 | 0.00 | 69 | 1013.2 |
| 20260904010841 | 84 | 95 | 3.5 | 3.5 | 0.00 | 0.00 | 0.00 | 69 | 1013.4 |
| 20260904010338 | 85 | 168 | 4.3 | 6.1 | 0.00 | 0.00 | 0.00 | 69 | 1013.2 |
| 20260904005833 | 85 | 115 | 5.2 | 7.8 | 0.00 | 0.00 | 0.00 | 69 | 1013.5 |
| 20260904005328 | 85 | 103 | 4.3 | 7.8 | 0.00 | 0.00 | 0.00 | 68 | 1013.4 |
| 20260904004823 | 85 | 152 | 5.2 | 7.0 | 0.00 | 0.00 | 0.00 | 68 | 1013.4 |
| 20260904004320 | 85 | 114 | 4.3 | 6.1 | 0.00 | 0.00 | 0.00 | 68 | 1013.4 |
| 20260904003814 | 85 | 96 | 9.6 | 12.2 | 0.00 | 0.00 | 0.00 | 68 | 1013.5 |
| 20260904003311 | 86 | 88 | 7.0 | 9.6 | 0.00 | 0.00 | 0.00 | 67 | 1013.4 |
| 20260904002806 | 86 | 123 | 7.8 | 13.0 | 0.00 | 0.00 | 0.00 | 67 | 1013.5 |
| 20260904002306 | 86 | 116 | 5.2 | 7.0 | 0.00 | 0.00 | 0.00 | 67 | 1013.5 |
| 20260904001801 | 86 | 59 | 5.2 | 7.0 | 0.00 | 0.00 | 0.00 | 67 | 1013.2 |
| 20260904001256 | 86 | 102 | 6.1 | 8.7 | 0.00 | 0.00 | 0.00 | 67 | 1013.4 |
| 20260904000751 | 87 | 100 | 4.3 | 8.7 | 0.00 | 0.00 | 0.00 | 66 | 1013.4 |
| 20260904000251 | 87 | 112 | 6.1 | 8.7 | 0.00 | 0.00 | 0.00 | 66 | 1013.2 |
| 20260903235750 | 87 | 66 | 7.0 | 8.7 | 0.00 | 0.00 | 0.00 | 65 | 1013.2 |
| 20260903235247 | 87 | 82 | 8.7 | 11.3 | 0.00 | 0.00 | 0.00 | 66 | 1013.1 |
| 20260903234746 | 87 | 73 | 5.2 | 7.8 | 0.00 | 0.00 | 0.00 | 66 | 1013.1 |
| 20260903234243 | 88 | 40 | 5.2 | 7.0 | 0.00 | 0.00 | 0.00 | 65 | 1013.2 |
| 20260903233738 | 88 | 104 | 6.1 | 8.7 | 0.00 | 0.00 | 0.00 | 65 | 1013.0 |
| 20260903233234 | 88 | 110 | 10.4 | 14.8 | 0.00 | 0.00 | 0.00 | 65 | 1012.8 |
| 20260903232732 | 88 | 76 | 8.7 | 11.3 | 0.00 | 0.00 | 0.00 | 65 | 1012.8 |
| 20260903232229 | 88 | 59 | 10.4 | 13.9 | 0.00 | 0.00 | 0.00 | 65 | 1012.9 |
| 20260903231728 | 88 | 145 | 8.7 | 12.2 | 0.00 | 0.00 | 0.00 | 66 | 1013.0 |
| 20260903231223 | 89 | 116 | 9.6 | 11.3 | 0.00 | 0.00 | 0.00 | 66 | 1013.0 |
| 20260903230720 | 89 | 127 | 13.0 | 14.8 | 0.00 | 0.00 | 0.00 | 65 | 1012.9 |
| 20260903230220 | 89 | 63 | 8.7 | 15.6 | 0.00 | 0.00 | 0.00 | 65 | 1012.9 |
| 20260903225716 | 90 | 88 | 7.0 | 9.6 | 0.00 | 0.00 | 0.00 | 64 | 1012.7 |
| 20260903225212 | 91 | 142 | 7.8 | 9.6 | 0.00 | 0.00 | 0.00 | 64 | 1012.6 |
| 20260903224708 | 91 | 133 | 2.6 | 6.1 | 0.00 | 0.00 | 0.00 | 65 | 1012.6 |
| 20260903224204 | 91 | 78 | 8.7 | 12.2 | 0.00 | 0.00 | 0.00 | 65 | 1012.5 |
| 20260903223659 | 91 | 151 | 3.5 | 5.2 | 0.00 | 0.00 | 0.00 | 66 | 1012.4 |
| 20260903223157 | 92 | 67 | 13.0 | 19.1 | 0.00 | 0.00 | 0.00 | 64 | 1012.3 |
| 20260903222652 | 92 | 78 | 13.0 | 18.2 | 0.00 | 0.00 | 0.00 | 62 | 1012.5 |
| 20260903222150 | 92 | 97 | 15.6 | 20.9 | 0.00 | 0.00 | 0.00 | 62 | 1012.2 |
| 20260903221646 | 93 | 108 | 5.2 | 6.1 | 0.00 | 0.00 | 0.00 | 62 | 1012.4 |
| 20260903221144 | 93 | 117 | 11.3 | 13.9 | 0.00 | 0.00 | 0.00 | 61 | 1012.4 |
| 20260903220643 | 92 | 83 | 7.8 | 8.7 | 0.00 | 0.00 | 0.00 | 60 | 1012.5 |
| 20260903220138 | 93 | 77 | 10.4 | 15.6 | 0.00 | 0.00 | 0.00 | 61 | 1012.2 |
| 20260903215637 | 93 | 89 | 5.2 | 8.7 | 0.00 | 0.00 | 0.00 | 59 | 1012.4 |
| 20260903215133 | 94 | 71 | 6.1 | 11.3 | 0.00 | 0.00 | 0.00 | 56 | 1012.2 |
| 20260903214631 | 93 | 78 | 7.0 | 11.3 | 0.00 | 0.00 | 0.00 | 55 | 1012.3 |
| 20260903214127 | 93 | 65 | 4.3 | 7.0 | 0.00 | 0.00 | 0.00 | 56 | 1012.5 |
| 20260903213621 | 94 | 121 | 3.5 | 5.2 | 0.00 | 0.00 | 0.00 | 56 | 1012.5 |
| 20260903213117 | 93 | 88 | 8.7 | 12.2 | 0.00 | 0.00 | 0.00 | 57 | 1012.4 |
| 20260903212613 | 93 | 100 | 7.0 | 8.7 | 0.00 | 0.00 | 0.00 | 56 | 1012.6 |
| 20260903212108 | 94 | 116 | 6.1 | 8.7 | 0.00 | 0.00 | 0.00 | 55 | 1012.3 |
| 20260903211603 | 94 | 50 | 3.5 | 7.8 | 0.00 | 0.00 | 0.00 | 55 | 1012.5 |
| 20260903211100 | 94 | 92 | 8.7 | 11.3 | 0.00 | 0.00 | 0.00 | 53 | 1012.5 |
| 20260903210555 | 95 | 52 | 6.1 | 9.6 | 0.00 | 0.00 | 0.00 | 53 | 1012.7 |
| 20260903210050 | 94 | 83 | 9.6 | 13.0 | 0.00 | 0.00 | 0.00 | 53 | 1012.8 |
| 20260903205549 | 95 | 78 | 7.8 | 11.3 | 0.00 | 0.00 | 0.00 | 54 | 1012.7 |
| 20260903205044 | 94 | 83 | 3.5 | 5.2 | 0.00 | 0.00 | 0.00 | 54 | 1012.8 |
| 20260903204540 | 94 | 119 | 7.0 | 8.7 | 0.00 | 0.00 | 0.00 | 56 | 1012.8 |
| 20260903204035 | 94 | 51 | 8.7 | 13.9 | 0.00 | 0.00 | 0.00 | 55 | 1012.9 |
| 20260903203531 | 95 | 86 | 5.2 | 8.7 | 0.00 | 0.00 | 0.00 | 54 | 1013.1 |
| 20260903203030 | 95 | 94 | 7.0 | 9.6 | 0.00 | 0.00 | 0.00 | 53 | 1013.0 |
| 20260903202526 | 95 | 68 | 4.3 | 7.0 | 0.00 | 0.00 | 0.00 | 54 | 1013.1 |
| 20260903202021 | 95 | 127 | 4.3 | 5.2 | 0.00 | 0.00 | 0.00 | 54 | 1013.1 |
| 20260903201516 | 95 | 70 | 9.6 | 13.9 | 0.00 | 0.00 | 0.00 | 54 | 1013.4 |
| 20260903201015 | 95 | 79 | 7.8 | 9.6 | 0.00 | 0.00 | 0.00 | 53 | 1013.4 |
| 20260903200510 | 96 | 107 | 3.5 | 6.1 | 0.00 | 0.00 | 0.00 | 51 | 1013.2 |
| 20260903200005 | 95 | 71 | 0.9 | 1.7 | 0.00 | 0.00 | 0.00 | 54 | 1013.5 |
| 20260903195501 | 96 | 99 | 7.0 | 11.3 | 0.00 | 0.00 | 0.00 | 53 | 1013.4 |
| 20260903194956 | 96 | 63 | 5.2 | 8.7 | 0.00 | 0.00 | 0.00 | 51 | 1013.5 |
| 20260903194451 | 95 | 108 | 4.3 | 5.2 | 0.00 | 0.00 | 0.00 | 52 | 1013.5 |
| 20260903193947 | 95 | 71 | 1.7 | 2.6 | 0.00 | 0.00 | 0.00 | 53 | 1013.6 |
| 20260903193443 | 95 | 68 | 3.5 | 5.2 | 0.00 | 0.00 | 0.00 | 53 | 1013.5 |
| 20260903192938 | 95 | 79 | 3.5 | 7.0 | 0.00 | 0.00 | 0.00 | 54 | 1013.8 |
| 20260903192435 | 94 | 142 | 6.1 | 7.8 | 0.00 | 0.00 | 0.00 | 52 | 1013.8 |
| 20260903191930 | 93 | 104 | 5.2 | 7.0 | 0.00 | 0.00 | 0.00 | 54 | 1013.9 |
| 20260903191426 | 93 | 131 | 0.9 | 2.6 | 0.00 | 0.00 | 0.00 | 54 | 1013.9 |
| 20260903190925 | 93 | 88 | 3.5 | 5.2 | 0.00 | 0.00 | 0.00 | 55 | 1014.1 |
| 20260903190425 | 93 | 171 | 2.6 | 5.2 | 0.00 | 0.00 | 0.00 | 54 | 1014.1 |
| 20260903185920 | 93 | 74 | 1.7 | 2.6 | 0.00 | 0.00 | 0.00 | 56 | 1014.3 |
| 20260903185415 | 94 | 137 | 4.3 | 6.1 | 0.00 | 0.00 | 0.00 | 55 | 1014.5 |
| 20260903184909 | 94 | 117 | 2.6 | 2.6 | 0.00 | 0.00 | 0.00 | 54 | 1014.5 |
| 20260903184406 | 93 | 202 | 4.3 | 6.1 | 0.00 | 0.00 | 0.00 | 54 | 1014.6 |
| 20260903183906 | 93 | 145 | 1.7 | 1.7 | 0.00 | 0.00 | 0.00 | 53 | 1014.7 |
| 20260903183401 | 94 | 130 | 5.2 | 7.0 | 0.00 | 0.00 | 0.00 | 53 | 1014.6 |
| 20260903182855 | 94 | 6 | 0.0 | 0.0 | 0.00 | 0.00 | 0.00 | 54 | 1014.7 |
| 20260903182354 | 95 | 163 | 2.6 | 2.6 | 0.00 | 0.00 | 0.00 | 52 | 1014.7 |
| 20260903181849 | 95 | 154 | 4.3 | 6.1 | 0.00 | 0.00 | 0.00 | 53 | 1014.7 |
| 20260903181343 | 93 | 60 | 1.7 | 1.7 | 0.00 | 0.00 | 0.00 | 55 | 1014.9 |
| 20260903180838 | 93 | 143 | 1.7 | 1.7 | 0.00 | 0.00 | 0.00 | 55 | 1015.0 |
| 20260903180337 | 91 | 112 | 3.5 | 6.1 | 0.00 | 0.00 | 0.00 | 58 | 1015.1 |
| 20260903175832 | 92 | 177 | 3.5 | 3.5 | 0.00 | 0.00 | 0.00 | 58 | 1015.3 |
| 20260903175331 | 92 | 139 | 5.2 | 7.8 | 0.00 | 0.00 | 0.00 | 56 | 1015.4 |
| 20260903174825 | 91 | 44 | 1.7 | 1.7 | 0.00 | 0.00 | 0.00 | 58 | 1015.4 |
| 20260903174321 | 92 | 99 | 7.8 | 8.7 | 0.00 | 0.00 | 0.00 | 58 | 1015.5 |
| 20260903173815 | 91 | 79 | 1.7 | 1.7 | 0.00 | 0.00 | 0.00 | 59 | 1015.4 |
| 20260903173311 | 92 | 94 | 4.3 | 5.2 | 0.00 | 0.00 | 0.00 | 57 | 1015.5 |
| 20260903172807 | 91 | 41 | 2.6 | 3.5 | 0.00 | 0.00 | 0.00 | 61 | 1015.4 |
| 20260903172301 | 92 | 127 | 1.7 | 2.6 | 0.00 | 0.00 | 0.00 | 59 | 1015.5 |
| 20260903171756 | 92 | 186 | 2.6 | 5.2 | 0.00 | 0.00 | 0.00 | 57 | 1015.6 |
| 20260903171252 | 91 | 215 | 6.1 | 8.7 | 0.00 | 0.00 | 0.00 | 58 | 1015.5 |
| 20260903170750 | 90 | 191 | 2.6 | 3.5 | 0.00 | 0.00 | 0.00 | 60 | 1015.6 |
| 20260903170246 | 90 | 221 | 1.7 | 1.7 | 0.00 | 0.00 | 0.00 | 62 | 1015.6 |
| 20260903165744 | 90 | 181 | 8.7 | 11.3 | 0.00 | 0.00 | 0.00 | 62 | 1015.7 |
| 20260903165239 | 90 | 188 | 7.0 | 8.7 | 0.00 | 0.00 | 0.00 | 62 | 1015.6 |
| 20260903164739 | 89 | 86 | 6.1 | 7.8 | 0.00 | 0.00 | 0.00 | 63 | 1015.7 |
| 20260903164235 | 89 | 199 | 7.0 | 8.7 | 0.00 | 0.00 | 0.00 | 65 | 1015.4 |
| 20260903163734 | 89 | 195 | 7.0 | 7.8 | 0.00 | 0.00 | 0.00 | 64 | 1015.6 |
| 20260903163231 | 89 | 144 | 5.2 | 7.0 | 0.00 | 0.00 | 0.00 | 65 | 1015.5 |
| 20260903162726 | 89 | 168 | 9.6 | 12.2 | 0.00 | 0.00 | 0.00 | 65 | 1015.6 |
| 20260903162222 | 90 | 138 | 5.2 | 7.0 | 0.00 | 0.00 | 0.00 | 64 | 1015.6 |
| 20260903161718 | 88 | 210 | 4.3 | 5.2 | 0.00 | 0.00 | 0.00 | 65 | 1015.5 |
| 20260903161213 | 88 | 165 | 7.0 | 8.7 | 0.00 | 0.00 | 0.00 | 66 | 1015.5 |
| 20260903160709 | 88 | 177 | 8.7 | 9.6 | 0.00 | 0.00 | 0.00 | 66 | 1015.4 |
| 20260903160202 | 88 | 193 | 9.6 | 11.3 | 0.00 | 0.00 | 0.00 | 66 | 1015.5 |
| 20260903155701 | 88 | 178 | 8.7 | 8.7 | 0.00 | 0.00 | 0.00 | 67 | 1015.5 |
| 20260903155156 | 88 | 211 | 6.1 | 7.8 | 0.00 | 0.00 | 0.00 | 67 | 1015.4 |
| 20260903154652 | 88 | 212 | 2.6 | 3.5 | 0.00 | 0.00 | 0.00 | 66 | 1015.5 |
| 20260903154148 | 87 | 230 | 7.0 | 8.7 | 0.00 | 0.00 | 0.00 | 69 | 1015.6 |
| 20260903153644 | 87 | 155 | 8.7 | 11.3 | 0.00 | 0.00 | 0.00 | 69 | 1015.5 |
| 20260903153139 | 86 | 217 | 7.0 | 8.7 | 0.00 | 0.00 | 0.00 | 70 | 1015.5 |
| 20260903152635 | 86 | 157 | 6.1 | 7.8 | 0.00 | 0.00 | 0.00 | 71 | 1015.4 |
| 20260903152131 | 86 | 201 | 5.2 | 7.8 | 0.00 | 0.00 | 0.00 | 70 | 1015.5 |
| 20260903151630 | 86 | 221 | 6.1 | 7.8 | 0.00 | 0.00 | 0.00 | 72 | 1015.3 |
| 20260903151125 | 86 | 146 | 3.5 | 5.2 | 0.00 | 0.00 | 0.00 | 73 | 1015.5 |
| 20260903150620 | 86 | 175 | 7.8 | 8.7 | 0.00 | 0.00 | 0.00 | 73 | 1015.3 |
| 20260903150115 | 86 | 176 | 7.8 | 9.6 | 0.00 | 0.00 | 0.00 | 71 | 1015.3 |
| 20260903145615 | 86 | 203 | 5.2 | 7.8 | 0.00 | 0.00 | 0.00 | 73 | 1015.4 |
| 20260903145110 | 85 | 199 | 7.0 | 8.7 | 0.00 | 0.00 | 0.00 | 75 | 1015.5 |
| 20260903144609 | 85 | 218 | 3.5 | 5.2 | 0.00 | 0.00 | 0.00 | 75 | 1015.7 |
| 20260903144105 | 85 | 214 | 4.3 | 6.1 | 0.00 | 0.00 | 0.00 | 76 | 1015.4 |
| 20260903143601 | 85 | 250 | 5.2 | 6.1 | 0.00 | 0.00 | 0.00 | 75 | 1015.4 |
| 20260903143056 | 85 | 204 | 9.6 | 12.2 | 0.00 | 0.00 | 0.00 | 76 | 1015.4 |
| 20260903142552 | 85 | 298 | 7.8 | 8.7 | 0.00 | 0.00 | 0.00 | 77 | 1015.3 |
| 20260903142049 | 84 | 145 | 3.5 | 5.2 | 0.00 | 0.00 | 0.00 | 78 | 1015.3 |
| 20260903141549 | 83 | 229 | 6.1 | 8.7 | 0.00 | 0.00 | 0.00 | 79 | 1015.4 |
| 20260903141044 | 83 | 195 | 2.6 | 5.2 | 0.00 | 0.00 | 0.00 | 80 | 1015.4 |
| 20260903140540 | 82 | 170 | 7.8 | 11.3 | 0.00 | 0.00 | 0.00 | 80 | 1015.5 |
| 20260903140035 | 82 | 183 | 7.0 | 9.6 | 0.00 | 0.00 | 0.00 | 81 | 1015.6 |
| 20260903135531 | 82 | 131 | 7.8 | 12.2 | 0.00 | 0.00 | 0.00 | 80 | 1015.3 |
| 20260903135031 | 83 | 171 | 12.2 | 16.5 | 0.00 | 0.00 | 0.00 | 80 | 1015.3 |
| 20260903134530 | 82 | 186 | 5.2 | 7.0 | 0.00 | 0.00 | 0.00 | 81 | 1015.3 |
| 20260903134026 | 82 | 198 | 5.2 | 7.0 | 0.00 | 0.00 | 0.00 | 83 | 1015.4 |
| 20260903133524 | 82 | 176 | 10.4 | 12.2 | 0.00 | 0.00 | 0.00 | 83 | 1015.4 |
| 20260903133019 | 81 | 174 | 9.6 | 12.2 | 0.00 | 0.00 | 0.00 | 84 | 1015.4 |
| 20260903132514 | 81 | 185 | 7.8 | 8.7 | 0.00 | 0.00 | 0.00 | 84 | 1015.4 |
| 20260903132009 | 81 | 215 | 7.0 | 8.7 | 0.00 | 0.00 | 0.00 | 84 | 1015.6 |
| 20260903131504 | 81 | 188 | 4.3 | 6.1 | 0.00 | 0.00 | 0.00 | 85 | 1015.4 |
| 20260903130957 | 81 | 181 | 5.2 | 6.1 | 0.00 | 0.00 | 0.00 | 85 | 1015.6 |
| 20260903130452 | 81 | 218 | 5.2 | 7.0 | 0.00 | 0.00 | 0.00 | 85 | 1015.6 |
| 20260903125950 | 81 | 152 | 2.6 | 5.2 | 0.00 | 0.00 | 0.00 | 85 | 1015.6 |
| 20260903125444 | 81 | 180 | 5.2 | 7.0 | 0.00 | 0.00 | 0.00 | 85 | 1015.4 |
| 20260903124939 | 81 | 183 | 5.2 | 7.8 | 0.00 | 0.00 | 0.00 | 85 | 1015.2 |
| 20260903124434 | 81 | 190 | 8.7 | 11.3 | 0.00 | 0.00 | 0.00 | 86 | 1015.3 |
| 20260903123933 | 81 | 181 | 7.8 | 8.7 | 0.00 | 0.00 | 0.00 | 86 | 1015.3 |
| 20260903123428 | 81 | 130 | 2.6 | 5.2 | 0.00 | 0.00 | 0.00 | 86 | 1015.3 |
| 20260903122926 | 81 | 192 | 3.5 | 5.2 | 0.00 | 0.00 | 0.00 | 86 | 1015.1 |
| 20260903122421 | 81 | 195 | 8.7 | 9.6 | 0.00 | 0.00 | 0.00 | 86 | 1015.2 |
| 20260903121920 | 81 | 178 | 6.1 | 7.8 | 0.00 | 0.00 | 0.00 | 86 | 1015.2 |
| 20260903121415 | 81 | 151 | 5.2 | 6.1 | 0.00 | 0.00 | 0.00 | 86 | 1015.0 |
| 20260903120911 | 81 | 189 | 6.1 | 7.0 | 0.00 | 0.00 | 0.00 | 86 | 1015.1 |
| 20260903120409 | 81 | 159 | 3.5 | 3.5 | 0.00 | 0.00 | 0.00 | 87 | 1015.1 |
| 20260903115908 | 81 | 185 | 7.8 | 9.6 | 0.00 | 0.00 | 0.00 | 87 | 1015.0 |
| 20260903115403 | 81 | 194 | 4.3 | 5.2 | 0.00 | 0.00 | 0.00 | 87 | 1014.9 |
| 20260903114858 | 81 | 181 | 7.0 | 9.6 | 0.00 | 0.00 | 0.00 | 87 | 1015.1 |
| 20260903114354 | 80 | 203 | 5.2 | 7.0 | 0.00 | 0.00 | 0.00 | 87 | 1015.0 |
| 20260903113849 | 81 | 179 | 5.2 | 6.1 | 0.00 | 0.00 | 0.00 | 87 | 1015.0 |
| 20260903113344 | 81 | 173 | 3.5 | 7.0 | 0.00 | 0.00 | 0.00 | 87 | 1015.0 |
| 20260903112840 | 81 | 180 | 5.2 | 6.1 | 0.00 | 0.00 | 0.00 | 87 | 1014.9 |
| 20260903112336 | 81 | 165 | 3.5 | 3.5 | 0.00 | 0.00 | 0.00 | 87 | 1015.1 |
| 20260903111834 | 81 | 153 | 7.8 | 9.6 | 0.00 | 0.00 | 0.00 | 86 | 1015.1 |
| 20260903111329 | 81 | 185 | 8.7 | 11.3 | 0.00 | 0.00 | 0.00 | 87 | 1015.0 |
| 20260903110826 | 81 | 179 | 8.7 | 12.2 | 0.00 | 0.00 | 0.00 | 87 | 1014.9 |
| 20260903110321 | 81 | 180 | 5.2 | 6.1 | 0.00 | 0.00 | 0.00 | 87 | 1014.8 |
| 20260903105820 | 80 | 131 | 7.0 | 7.8 | 0.00 | 0.00 | 0.00 | 87 | 1014.8 |
| 20260903105310 | 81 | 188 | 2.6 | 5.2 | 0.00 | 0.00 | 0.00 | 87 | 1014.8 |
| 20260903104809 | 80 | 153 | 7.0 | 8.7 | 0.00 | 0.00 | 0.00 | 87 | 1014.8 |
| 20260903104304 | 80 | 175 | 6.1 | 7.0 | 0.00 | 0.00 | 0.00 | 87 | 1014.8 |
| 20260903103801 | 80 | 181 | 7.0 | 8.7 | 0.00 | 0.00 | 0.00 | 87 | 1014.7 |
| 20260903103256 | 80 | 187 | 7.0 | 8.7 | 0.00 | 0.00 | 0.00 | 87 | 1014.5 |
| 20260903102751 | 80 | 173 | 7.0 | 8.7 | 0.00 | 0.00 | 0.00 | 87 | 1014.7 |
| 20260903102246 | 80 | 193 | 7.8 | 11.3 | 0.00 | 0.00 | 0.00 | 87 | 1014.6 |
| 20260903101744 | 80 | 186 | 5.2 | 7.0 | 0.00 | 0.00 | 0.00 | 87 | 1014.7 |
| 20260903101240 | 80 | 189 | 11.3 | 13.0 | 0.00 | 0.00 | 0.00 | 87 | 1014.5 |
| 20260903100736 | 80 | 219 | 3.5 | 5.2 | 0.00 | 0.00 | 0.00 | 87 | 1014.6 |
| 20260903100230 | 80 | 188 | 9.6 | 13.0 | 0.00 | 0.00 | 0.00 | 87 | 1014.7 |
| 20260903095727 | 80 | 167 | 5.2 | 6.1 | 0.00 | 0.00 | 0.00 | 87 | 1014.3 |
| 20260903095223 | 80 | 168 | 7.8 | 9.6 | 0.00 | 0.00 | 0.00 | 87 | 1014.6 |
| 20260903094718 | 80 | 178 | 4.3 | 7.0 | 0.00 | 0.00 | 0.00 | 86 | 1014.6 |
| 20260903094213 | 80 | 140 | 4.3 | 7.0 | 0.00 | 0.00 | 0.00 | 87 | 1014.7 |
| 20260903093708 | 80 | 132 | 4.3 | 5.2 | 0.00 | 0.00 | 0.00 | 86 | 1014.7 |
| 20260903093203 | 80 | 182 | 4.3 | 6.1 | 0.00 | 0.00 | 0.00 | 86 | 1014.8 |
| 20260903092657 | 81 | 179 | 8.7 | 11.3 | 0.00 | 0.00 | 0.00 | 86 | 1014.7 |
| 20260903092151 | 81 | 139 | 10.4 | 13.0 | 0.00 | 0.00 | 0.00 | 86 | 1015.0 |
| 20260903091650 | 81 | 140 | 4.3 | 5.2 | 0.00 | 0.00 | 0.00 | 86 | 1014.8 |
| 20260903091144 | 81 | 196 | 7.0 | 8.7 | 0.00 | 0.00 | 0.00 | 86 | 1015.0 |
| 20260903090640 | 81 | 182 | 7.0 | 8.7 | 0.00 | 0.00 | 0.00 | 85 | 1014.8 |
| 20260903090139 | 81 | 174 | 7.0 | 9.6 | 0.00 | 0.00 | 0.00 | 85 | 1014.9 |
| 20260903085638 | 81 | 175 | 7.8 | 11.3 | 0.00 | 0.00 | 0.00 | 85 | 1014.9 |
| 20260903085134 | 81 | 204 | 4.3 | 6.1 | 0.00 | 0.00 | 0.00 | 85 | 1015.0 |
| 20260903084631 | 81 | 206 | 5.2 | 6.1 | 0.00 | 0.00 | 0.00 | 85 | 1014.9 |
| 20260903084126 | 81 | 159 | 5.2 | 6.1 | 0.00 | 0.00 | 0.00 | 85 | 1014.8 |
| 20260903083621 | 81 | 212 | 5.2 | 7.0 | 0.00 | 0.00 | 0.00 | 85 | 1015.2 |
| 20260903083116 | 81 | 180 | 3.5 | 3.5 | 0.00 | 0.00 | 0.00 | 84 | 1015.0 |
| 20260903082610 | 81 | 182 | 7.8 | 9.6 | 0.00 | 0.00 | 0.00 | 85 | 1014.9 |
| 20260903082106 | 81 | 174 | 5.2 | 7.0 | 0.00 | 0.00 | 0.00 | 85 | 1015.0 |
| 20260903081601 | 81 | 198 | 8.7 | 11.3 | 0.00 | 0.00 | 0.00 | 85 | 1015.1 |
| 20260903081057 | 81 | 113 | 5.2 | 7.8 | 0.00 | 0.00 | 0.00 | 84 | 1014.9 |
| 20260903080553 | 81 | 177 | 7.8 | 9.6 | 0.00 | 0.00 | 0.00 | 84 | 1014.9 |
| 20260903080049 | 81 | 157 | 1.7 | 1.7 | 0.00 | 0.00 | 0.00 | 84 | 1015.0 |
| 20260903075544 | 81 | 121 | 1.7 | 3.5 | 0.00 | 0.00 | 0.00 | 84 | 1015.0 |
| 20260903075040 | 81 | 92 | 6.1 | 7.0 | 0.00 | 0.00 | 0.00 | 84 | 1014.9 |
| 20260903074538 | 81 | 140 | 5.2 | 7.8 | 0.00 | 0.00 | 0.00 | 84 | 1014.9 |
| 20260903074033 | 81 | 135 | 8.7 | 11.3 | 0.00 | 0.00 | 0.00 | 83 | 1014.9 |
| 20260903073529 | 81 | 158 | 6.1 | 8.7 | 0.00 | 0.00 | 0.00 | 83 | 1015.0 |
| 20260903073025 | 81 | 184 | 10.4 | 13.0 | 0.00 | 0.00 | 0.00 | 83 | 1015.1 |
| 20260903072520 | 81 | 218 | 2.6 | 3.5 | 0.00 | 0.00 | 0.00 | 82 | 1015.3 |
| 20260903072016 | 82 | 186 | 7.8 | 11.3 | 0.00 | 0.00 | 0.00 | 82 | 1015.1 |
| 20260903071512 | 82 | 193 | 6.1 | 7.8 | 0.00 | 0.00 | 0.00 | 81 | 1015.1 |
| 20260903071007 | 82 | 182 | 8.7 | 11.3 | 0.00 | 0.00 | 0.00 | 81 | 1015.1 |
| 20260903070507 | 82 | 143 | 7.8 | 8.7 | 0.00 | 0.00 | 0.00 | 80 | 1015.2 |
| 20260903070003 | 82 | 197 | 5.2 | 7.0 | 0.00 | 0.00 | 0.00 | 80 | 1015.2 |
| 20260903065457 | 81 | 143 | 4.3 | 6.1 | 0.00 | 0.00 | 0.00 | 79 | 1015.2 |
| 20260903064956 | 82 | 153 | 3.5 | 5.2 | 0.00 | 0.00 | 0.00 | 79 | 1015.2 |
| 20260903064450 | 82 | 128 | 7.8 | 7.8 | 0.00 | 0.00 | 0.00 | 79 | 1015.2 |
| 20260903063947 | 81 | 117 | 5.2 | 7.0 | 0.00 | 0.00 | 0.00 | 79 | 1015.2 |
| 20260903063442 | 81 | 142 | 2.6 | 2.6 | 0.00 | 0.00 | 0.00 | 79 | 1015.3 |
| 20260903062937 | 81 | 185 | 4.3 | 7.8 | 0.00 | 0.00 | 0.00 | 79 | 1015.3 |
| 20260903062436 | 81 | 158 | 1.7 | 1.7 | 0.00 | 0.00 | 0.00 | 80 | 1015.3 |
| 20260903061932 | 81 | 112 | 4.3 | 6.1 | 0.00 | 0.00 | 0.00 | 80 | 1015.3 |
| 20260903061432 | 81 | 141 | 3.5 | 3.5 | 0.00 | 0.00 | 0.00 | 80 | 1015.4 |
| 20260903060927 | 81 | 120 | 5.2 | 6.1 | 0.00 | 0.00 | 0.00 | 80 | 1015.4 |
| 20260903060422 | 81 | 160 | 1.7 | 2.6 | 0.00 | 0.00 | 0.00 | 81 | 1015.3 |
| 20260903055921 | 81 | 191 | 4.3 | 6.1 | 0.00 | 0.00 | 0.00 | 81 | 1015.4 |
| 20260903055419 | 81 | 124 | 3.5 | 3.5 | 0.00 | 0.00 | 0.00 | 81 | 1015.4 |
| 20260903054914 | 81 | 72 | 0.9 | 2.6 | 0.00 | 0.00 | 0.00 | 81 | 1015.5 |
| 20260903054414 | 81 | 149 | 6.1 | 7.8 | 0.00 | 0.00 | 0.00 | 81 | 1015.4 |
| 20260903053910 | 81 | 157 | 7.8 | 8.7 | 0.00 | 0.00 | 0.00 | 81 | 1015.1 |
| 20260903053410 | 81 | 106 | 2.6 | 3.5 | 0.00 | 0.00 | 0.00 | 81 | 1015.1 |
| 20260903052907 | 81 | 116 | 1.7 | 1.7 | 0.00 | 0.00 | 0.00 | 81 | 1015.3 |
| 20260903052402 | 81 | 130 | 4.3 | 6.1 | 0.00 | 0.00 | 0.00 | 81 | 1015.4 |
| 20260903051857 | 80 | 115 | 1.7 | 1.7 | 0.00 | 0.00 | 0.00 | 81 | 1015.1 |
| 20260903051352 | 80 | 135 | 0.9 | 0.9 | 0.00 | 0.00 | 0.00 | 81 | 1015.4 |
| 20260903050848 | 80 | 105 | 2.6 | 3.5 | 0.00 | 0.00 | 0.00 | 81 | 1015.5 |
| 20260903050347 | 80 | 83 | 3.5 | 3.5 | 0.00 | 0.00 | 0.00 | 81 | 1015.3 |
| 20260903045842 | 80 | 168 | 1.7 | 2.6 | 0.00 | 0.00 | 0.00 | 81 | 1015.3 |
| 20260903045338 | 80 | 116 | 5.2 | 6.1 | 0.00 | 0.00 | 0.00 | 81 | 1015.2 |
| 20260903044834 | 80 | 93 | 1.7 | 3.5 | 0.00 | 0.00 | 0.00 | 81 | 1015.3 |
| 20260903044329 | 80 | 132 | 2.6 | 2.6 | 0.00 | 0.00 | 0.00 | 81 | 1015.1 |
| 20260903043825 | 80 | 129 | 3.5 | 5.2 | 0.00 | 0.00 | 0.00 | 81 | 1015.1 |
| 20260903043320 | 80 | 92 | 5.2 | 7.0 | 0.00 | 0.00 | 0.00 | 81 | 1015.2 |
| 20260903042819 | 80 | 143 | 2.6 | 2.6 | 0.00 | 0.00 | 0.00 | 80 | 1015.2 |
| 20260903042315 | 80 | 79 | 3.5 | 6.1 | 0.00 | 0.00 | 0.00 | 80 | 1015.2 |
| 20260903041811 | 81 | 143 | 4.3 | 6.1 | 0.00 | 0.00 | 0.00 | 80 | 1015.2 |
| 20260903041307 | 81 | 105 | 2.6 | 3.5 | 0.00 | 0.00 | 0.00 | 79 | 1015.3 |
| 20260903040807 | 81 | 96 | 4.3 | 5.2 | 0.00 | 0.00 | 0.00 | 79 | 1015.2 |
| 20260903040306 | 81 | 94 | 1.7 | 2.6 | 0.00 | 0.00 | 0.00 | 78 | 1015.3 |
| 20260903035803 | 81 | 21 | 0.9 | 1.7 | 0.00 | 0.00 | 0.00 | 77 | 1015.0 |
| 20260903035257 | 82 | 99 | 6.1 | 7.0 | 0.00 | 0.00 | 0.00 | 76 | 1015.2 |
| 20260903034753 | 82 | 96 | 5.2 | 7.0 | 0.00 | 0.00 | 0.00 | 76 | 1015.2 |
| 20260903034248 | 82 | 107 | 7.0 | 8.7 | 0.00 | 0.00 | 0.00 | 74 | 1015.3 |
| 20260903033743 | 82 | 76 | 5.2 | 7.8 | 0.00 | 0.00 | 0.00 | 74 | 1015.3 |
| 20260903033238 | 83 | 76 | 4.3 | 7.0 | 0.00 | 0.00 | 0.00 | 72 | 1015.5 |
| 20260903032732 | 84 | 76 | 2.6 | 5.2 | 0.00 | 0.00 | 0.00 | 67 | 1015.4 |
| 20260903032228 | 85 | 88 | 4.3 | 5.2 | 0.00 | 0.00 | 0.00 | 66 | 1015.2 |
| 20260903031723 | 85 | 81 | 10.4 | 12.2 | 0.00 | 0.00 | 0.00 | 66 | 1015.1 |
| 20260903031217 | 85 | 101 | 6.1 | 8.7 | 0.00 | 0.00 | 0.00 | 65 | 1015.0 |
| 20260903030714 | 86 | 96 | 1.7 | 2.6 | 0.00 | 0.00 | 0.00 | 64 | 1015.0 |
| 20260903030209 | 86 | 90 | 5.2 | 7.0 | 0.00 | 0.00 | 0.00 | 62 | 1014.8 |
| 20260903025704 | 86 | 85 | 5.2 | 7.0 | 0.00 | 0.00 | 0.00 | 62 | 1014.5 |
| 20260903025200 | 87 | 53 | 4.3 | 7.8 | 0.00 | 0.00 | 0.00 | 60 | 1014.7 |
| 20260903024654 | 87 | 77 | 7.0 | 7.8 | 0.00 | 0.00 | 0.00 | 58 | 1014.4 |